Weather in Singapore

Singapore     1°19′05″N   103°49′46″E
temp.,
°C
wind,
m/s
gust,
m/s
humid.,
%
clouds,
%
prec.,
mm/h
press.,
hPa
HPBL,
m
22 january, sat
sat2223:00+26nne587898 0.0 1011466
02:00+25nne5984100 0.0 1010526
05:00+25n59865 0.0 1009493
08:00+25nne588599 0.0 1011472
11:00+28nne5669100 0.0 10121069
14:00+30ene3465100 0.0 1009400
17:00+29sse246895 0.1 1006320
20:00+28ene55725 0.1 1008359
23 january, sun
sun2323:00+26ne66756 0.0 1010377
02:00+26nne45785 0.0 1009269
05:00+25nne458034 0.0 1008287
08:00+25nne45835 0.0 1010277
11:00+27ne346999 0.0 1011640
14:00+29se336511 0.0 1008446
17:00+28ese567131 0.0 1005468
20:00+28ene78709 0.0 1007524
24 january, mon
mon2423:00+27ne67745 0.0 1009418
02:00+26ne567921 0.0 1009343
05:00+25nne458214 0.0 1007317
08:00+25nne45835 0.0 1009275
11:00+28nne346540 0.0 1010681
14:00+30sse225958 0.0 1007389
17:00+28sse236719 0.0 1005401
20:00+29ne34715 0.0 1007214
25 january, tue
tue2523:00+27nne67777 0.0 1009363
02:00+26nne578237 0.0 1008361
05:00+25nne568378 0.0 1007316
08:00+25nne458288 0.0 1009266
11:00+28nne446687 0.0 1010682
14:00+30wsw23595 0.0 1007488
17:00+28ssw336916 0.0 1005377
20:00+28ne567067 0.0 1007355
26 january, wed
wed2623:00+27nne687650 0.0 1009431
02:00+26n68854 0.0 1008431
05:00+25nne588818 0.0 1007441
08:00+25n698833 0.0 1008487
11:00+28nne566895 0.0 10091034
14:00+30se236261 0.0 1007411
17:00+30ne566338 0.0 1005302
20:00+28nne78715 0.0 1007591